Fernwood, MS

3:12 AM CST on February 22, 2017 (GMT -0600)
McComb-Pike County-Lewis

Weather History for KMCB - May, 2014

Change the Weather History Date:

Wednesday, May 14, 2014

  Actual Average Record
Temperature  
Mean Temperature 67 °F -  
Max Temperature 79 °F 84 °F 92 °F (1984)
Min Temperature 55 °F 60 °F 45 °F (1971)
Cooling Degree Days 2    
Growing Degree Days 17 (Base 50)    
Moisture  
Dew Point 62 °F    
Average Humidity 84    
Maximum Humidity 97    
Minimum Humidity 64    
Precipitation  
Precipitation 0.00 in - - ()
Sea Level Pressure  
Sea Level Pressure 30.01 in    
Wind  
Wind Speed 6 mph (NW)    
Max Wind Speed 20 mph    
Max Gust Speed 29 mph    
Visibility 7 miles    
Events Fog , Rain , Thunderstorm    
Averages and records for this station are not official NWS values.
T = Trace of Precipitation, MM = Missing Value Source: NWS Daily Summary

Daily Weather History Graph

Daily Weather History Graph

Search for Another Location

Airport or City:

Trip Planner

Search our weather history database for the weather conditions in past years. The results will help you decide how hot, cold, wet, or windy it might be!

Date:

Astronomy

May. 14, 2014 Rise Set
Actual Time 6:06 AM CDT 7:50 PM CDT
Civil Twilight 5:40 AM CDT 8:16 PM CDT
Nautical Twilight 5:08 AM CDT 8:48 PM CDT
Astronomical Twilight 4:34 AM CDT 9:22 PM CDT
Moon 7:57 PM CDT (5/14) 6:02 AM CDT (5/14)
Length of Visible Light 14h 36m
Length of Day
13h 43m
Full, 100% of the Moon is Illuminated
May 14
Full
May 14
Full
May 21
Last Quarter
May 28
New
Jun 5
First Quarter

Hourly Weather History & Observations

Time (CDT) Temp. Dew Point Humidity Pressure Visibility Wind Dir Wind Speed Gust Speed Precip Events Conditions
12:53 AM 70.0 °F 68.0 °F 93% 30.03 in 5.0 mi SSE 3.5 mph - N/A   Clear
1:53 AM 70.0 °F 68.0 °F 93% 30.01 in 6.0 mi Calm Calm - N/A   Scattered Clouds
2:53 AM 70.0 °F 68.0 °F 93% 29.99 in 5.0 mi Calm Calm - N/A   Mostly Cloudy
3:53 AM 70.0 °F 68.0 °F 93% 29.97 in 4.0 mi Calm Calm - N/A   Mostly Cloudy
4:27 AM 70.0 °F 68.0 °F 93% 29.99 in 4.0 mi West 4.6 mph - N/A   Mostly Cloudy
4:42 AM 70.0 °F 68.0 °F 93% 29.99 in 5.0 mi Calm Calm - N/A   Overcast
4:53 AM 70.0 °F 68.0 °F 93% 29.98 in 4.0 mi Calm Calm - N/A   Overcast
5:28 AM 70.0 °F 68.0 °F 93% 29.99 in 2.0 mi West 3.5 mph - N/A   Overcast
5:35 AM 70.0 °F 69.1 °F 97% 29.99 in 1.5 mi Calm Calm - N/A   Overcast
5:53 AM 70.0 °F 69.1 °F 97% 29.97 in 0.8 mi Calm Calm - N/A   Mist
6:09 AM 70.0 °F 69.1 °F 97% 29.98 in 1.2 mi Calm Calm - N/A   Overcast
6:22 AM 70.0 °F 69.1 °F 97% 29.98 in 2.0 mi Calm Calm - N/A   Overcast
6:31 AM 70.0 °F 69.1 °F 97% 29.99 in 1.5 mi Calm Calm - N/A   Overcast
6:45 AM 70.0 °F 69.1 °F 97% 29.99 in 0.5 mi Calm Calm - N/A Fog Fog
6:53 AM 70.0 °F 69.1 °F 97% 29.97 in 0.2 mi Calm Calm - N/A Fog Fog
7:26 AM 70.0 °F 69.1 °F 97% 29.99 in 0.2 mi SSE 4.6 mph - 0.00 in Fog , Rain , Thunderstorm Light Rain
7:35 AM 70.0 °F 69.1 °F 97% 30.00 in 0.5 mi SSE 5.8 mph - 0.00 in Fog , Rain Light Rain
7:53 AM 70.0 °F 69.1 °F 97% 29.99 in 2.0 mi SSE 9.2 mph - 0.00 in   Overcast
8:03 AM 70.0 °F 68.0 °F 93% 30.00 in 8.0 mi SE 6.9 mph - N/A   Overcast
8:53 AM 71.1 °F 68.0 °F 90% 29.99 in 10.0 mi South 5.8 mph - N/A   Scattered Clouds
10:53 AM 78.1 °F 68.0 °F 71% 29.98 in 10.0 mi SSE 9.2 mph - N/A   Partly Cloudy
11:53 AM 79.0 °F 66.0 °F 64% 29.96 in 10.0 mi North - - N/A   Mostly Cloudy
12:37 PM 72.0 °F 64.0 °F 76% 29.98 in 10.0 mi WNW 18.4 mph 28.8 mph N/A   Overcast
12:53 PM 71.1 °F 62.1 °F 73% 29.97 in 10.0 mi NW 19.6 mph 25.3 mph N/A   Overcast
1:24 PM 69.1 °F 59.0 °F 70% 29.98 in 10.0 mi WNW 16.1 mph 25.3 mph N/A   Overcast
1:53 PM 66.9 °F 57.0 °F 70% 29.99 in 10.0 mi NW 16.1 mph 25.3 mph N/A   Overcast
2:45 PM 66.9 °F 55.9 °F 68% 29.98 in 10.0 mi NW 16.1 mph 23.0 mph N/A   Overcast
2:53 PM 68.0 °F 55.9 °F 65% 29.97 in 10.0 mi NW 19.6 mph 25.3 mph N/A   Mostly Cloudy
4:08 PM 68.0 °F 55.9 °F 65% 29.98 in 10.0 mi NNW 13.8 mph 23.0 mph N/A   Overcast
4:53 PM 64.0 °F 55.0 °F 73% 29.99 in 10.0 mi NNW 18.4 mph 25.3 mph N/A   Overcast
5:53 PM 62.1 °F 54.0 °F 75% 30.00 in 10.0 mi NW 19.6 mph 28.8 mph N/A   Overcast
6:30 PM 62.1 °F 54.0 °F 75% 30.03 in 10.0 mi NNW 15.0 mph - N/A   Overcast
6:38 PM 62.1 °F 54.0 °F 75% 30.04 in 10.0 mi NW 12.7 mph 20.7 mph N/A   Overcast
6:53 PM 61.0 °F 54.0 °F 78% 30.04 in 9.0 mi NNW 15.0 mph - N/A   Overcast
7:15 PM 61.0 °F 53.1 °F 75% 30.05 in 10.0 mi NW 13.8 mph - N/A   Overcast
7:33 PM 61.0 °F 54.0 °F 78% 30.07 in 8.0 mi NW 13.8 mph 21.9 mph N/A   Overcast
7:53 PM 57.9 °F 54.0 °F 87% 30.07 in 10.0 mi NW 15.0 mph - 0.00 in   Overcast
8:53 PM 57.0 °F 52.0 °F 83% 30.09 in 10.0 mi NNW 10.4 mph - N/A   Clear
9:48 PM 57.2 °F 51.8 °F 82% 30.11 in 10.0 mi NNW 10.4 mph - N/A   Mostly Cloudy
9:53 PM 57.0 °F 51.1 °F 81% 30.10 in 10.0 mi NNW 11.5 mph - N/A   Mostly Cloudy
10:00 PM 57.0 °F 51.1 °F 81% 30.11 in 10.0 mi NNW 10.4 mph - N/A   Scattered Clouds
10:38 PM 55.9 °F 51.1 °F 84% 30.12 in 10.0 mi NNW 9.2 mph - N/A   Mostly Cloudy
10:53 PM 55.9 °F 51.1 °F 84% 30.11 in 10.0 mi NNW 10.4 mph - N/A   Mostly Cloudy
11:53 PM 55.0 °F 51.1 °F 86% 30.11 in 10.0 mi NW 9.2 mph - N/A   Overcast